Location: York
(31.8935°S, 116.7682°E)
Time: 05:57:17
(UTC+08:00)

X-37B - Pass Details

Date: 21 May 2021
Orbit: 386 x 389 km, 45.0° (Epoch: 10 June)

Event Time Altitude Azimuth Distance (km) Brightness Sun altitude
Exits shadow 05:32:54 24° 181° (S) 872 2.2 -18.0°
Maximum altitude 05:33:46 27° 153° (SSE) 789 2.2 -17.8°
Drops below altitude 10° 05:36:35 10° 92° (E) 1,424 4.6 -17.2°
Sets 05:38:50 0° 79° (E) 2,274 6.3 -16.8°
